DECAYED

OBJECT A, 62263 (Decayed)

Orbit data source: Space-Track

You're viewing an Uncataloged Satellite

Recently launched and/or uncataloged satellites may have evolving metadata. Metadata may include but not limited to: Owner, Maufacturer, Bus, Motor, and Mission.

OBJECT A, 62263 was a satellite owned by IRSA (IR) in LEO that was launched on Fri, 06 Dec 2024 UTC via an SIMORGH launch vehicle from the Semnan, Iran (SEM). Unknown objects in Earth's orbit typically refer to objects detected orbiting the Earth but have not yet been identified or cataloged. These objects could be anything from previously untracked satellites, spent rocket stages, debris from satellite collisions, or even natural meteoroids temporarily captured by Earth's gravity. This object's orbit decayed before it could be identified.

Not visible in the next 10 days
Identifier
62263, 2024-236A
Orbit
Decayed
Last TLE update
4 months ago
Origin
Flag of UnknownIRSA (Unknown / IRAN)
Manufacturer
IRSA
Mission
Decayed spacecraft
Bus & Motor
SIMORGH ST2, Unknown motor
Mass
1,500 kg wet, 1,500 kg dry
Launch date (UTC)
2024-12-06 (7 months ago)
Launch vehicle
SIMORGH
Launch site
Semnan, Iran (SEM)
Object type
Unknown
Shape & HBR
Cyl, 8.2 m
Radar Cross Section
10.544 m², Large (>1 m²)

Expand to show TLE details & history

TLE from 4 months ago
0 OBJECT A
1 62263U 24236A   25055.94420865  .10909685  11139-4  30193-3 0  9997
2 62263  58.5193  27.4829 0010100 280.8560 115.0565 16.44675548 12843
Epoch: 2025-02-24T22:39Z
TLE epoch observation values (Epoch: 2025-02-24T22:39:39.627Z)
Latitude
30.18581°
Longitude
-86.74706°
Altitude
158.511 km
Speed
7.813 km/s
True Right ascension
03h 12m 53s
True Declination
30° 01' 22"
Sunlit
Object was in daylight at epoch
Visualization orbit readout
Visualization observer readout
Orbital elements
Apogee altitude
159.381 km
Perigee altitude
146.189 km
Semi-major axis
6,530.922 km
Eccentricity
0.00101
Inclination
58.5193°
RAAN
27.4829°
Arg. of periapsis
280.856°
True anomaly
Unknown
Mean anomaly
115.0565°
Eccentric anomaly
Unknown
Mean motion
4.11227 °/min
Orbital period
87.54 mins
BSTAR
0.00030193
Loading maneuver chart data...
Loading SW <> Apogee altitude chart data...
Loading historical data...
Loading historical data...
Loading historical data...
Loading historical data...
Loading historical data...
Loading historical data...
Loading historical data...
Other satellites on launch #236 in the year 2024 (2024-12-06 UTC)

OBJECT A Visibility

Observer location: undefined°, undefined°

This satellite is decayed
Span
Click to sort rows by Start time (UTC) header in descending order
Start Az.
Max El. time (UTC)
Max El. Az.
Max El.
End time (UTC)
End Az.
|